sat.trackr.live / text

‹ back to catalog

SHIJIAN-6 03B (SJ-6 03B)

NORAD 33409 · 2008-053B

PAYLOAD ACTIVE UNKNOWN

§ Identity

Operator
Country
PRC
Launch date
2008-10-25
Launch site
TAISC
Launch vehicle
Mass (kg)
RCS (m²)
2.35

External: N2YO · Heavens-Above · Gunter

§ Orbital elements

Epoch: 2026-09-20T05:06:04.105728Z

Period
95.71 min
Inclination
97.8555°
Eccentricity
0.0020453
Mean motion
15.04512069 rev/d
Perigee alt
538.8 km
Apogee alt
567.2 km
Semi-major
6,931.1 km
B*
1.1841e-4
RAAN
284.6823°
Arg perigee
80.6116°
Mean anomaly
279.7421°
Rev number
97,703

§ Raw data

SHIJIAN-6 03B (SJ-6 03B)1 33409U 08053B   26263.21254752  .00001600  00000+0  11841-3 0  99962 33409  97.8555 284.6823 0020453  80.6116 279.7421 15.04512069977030

JSON: /api/v1/satellites/33409 · /tle

For live sub-satellite position, see the globe view (requires WebGL).

§ Visibility from observer

Set your observer location to see the next 7 days of passes ≥ 10°. The values pass through the URL so the page stays shareable.

No JS? Fill the form by hand. The geolocation button needs JavaScript.

§ Radio — SatNOGS DB

ModeDescriptionDownlinkUplink
FM S-band telemetry 2.251 GHz

1 transmitter · refreshed weekly from db.satnogs.org